Temp
-15 -15 -16 -15 -16 -16 -16 -16 -16 -16 -16 -18 -18 -17 -18 -17 -17 -17 -17 -18 -18 -18 -17 -17 -17 -18 -18 -19 -20 -21 -23 -23 -23 -24 -25 -25 -26 -26 -27 -28 -29 -30 -31 -31
-15 -16 -16 -15 -16 -16 -16 -16 -16 -17 -17 -17 -17 -18 -18 -18 -18 -18 -18 -17 -17 -17 -17 -17 -18 -18 -20 -20 -23 -24 -24 -24 -24 -25 -25 -26 -27 -28 -28 -29 -30 -31 -31 -31
-15 -15 -15 -15 -16 -16 -16 -17 -17 -17 -17 -18 -18 -17 -18 -17 -18 -17 -17 -17 -17 -17 -17 -18 -19 -20 -22 -23 -23 -23 -24 -24 -25 -26 -27 -28 -29 -29 -29 -30 -31 -31 -31 -31
-15 -16 -15 -16 -16 -16 -16 -17 -17 -17 -17 -18 -18 -17 -18 -17 -17 -17 -17 -17 -18 -18 -19 -21 -22 -23 -23 -23 -24 -25 -25 -26 -27 -28 -28 -29 -29 -30 -30 -31 -31 -31 -31 -31
-16 -16 -15 -16 -16 -16 -17 -17 -17 -17 -18 -18 -18 -17 -18 -17 -18 -18 -18 -18 -19 -20 -21 -22 -22 -23 -23 -24 -25 -25 -26 -27 -28 -29 -29 -30 -30 -30 -31 -31 -31 -31 -31 -32
-16 -16 -16 -17 -17 -16 -17 -17 -17 -17 -17 -17 -17 -17 -18 -18 -18 -18 -18 -19 -19 -20 -22 -23 -23 -24 -24 -25 -26 -27 -27 -28 -29 -30 -30 -30 -31 -31 -31 -31 -31 -32 -32 -32
-16 -16 -16 -17 -17 -17 -17 -17 -17 -17 -18 -18 -17 -18 -17 -18 -18 -18 -19 -19 -21 -22 -22 -23 -24 -24 -25 -26 -27 -28 -29 -29 -30 -30 -31 -31 -31 -31 -31 -32 -32 -32 -32 -32
-16 -16 -17 -17 -17 -17 -17 -18 -18 -18 -18 -18 -18 -18 -18 -18 -18 -19 -20 -21 -22 -23 -23 -24 -25 -26 -27 -27 -29 -29 -30 -30 -31 -31 -31 -32 -32 -32 -32 -32 -32 -32 -32 -33
-17 -17 -18 -18 -18 -18 -18 -18 -18 -18 -18 -18 -18 -18 -18 -19 -20 -20 -22 -23 -23 -23 -24 -25 -25 -27 -28 -28 -29 -30 -30 -31 -31 -32 -32 -32 -32 -32 -32 -32 -32 -33 -33 -33
-17 -18 -18 -18 -18 -18 -18 -18 -18 -18 -18 -18 -18 -19 -19 -20 -21 -22 -23 -23 -24 -24 -24 -25 -26 -28 -29 -29 -30 -31 -31 -32 -33 -33 -33 -33 -33 -33 -33 -32 -33 -33 -33 -34
-17 -18 -18 -18 -18 -19 -18 -18 -18 -18 -18 -18 -19 -19 -20 -21 -22 -23 -23 -24 -24 -25 -26 -27 -28 -29 -30 -30 -31 -32 -32 -33 -33 -33 -34 -33 -34 -33 -33 -33 -33 -33 -34 -34
-18 -18 -19 -19 -18 -18 -19 -18 -18 -19 -19 -19 -20 -20 -21 -22 -23 -23 -24 -24 -25 -26 -28 -29 -29 -30 -30 -31 -32 -32 -33 -33 -33 -34 -33 -33 -33 -33 -33 -33 -33 -34 -34 -34
-19 -19 -19 -19 -19 -19 -19 -19 -19 -19 -20 -20 -21 -22 -23 -23 -23 -24 -25 -26 -27 -28 -29 -30 -30 -30 -31 -32 -33 -33 -33 -33 -33 -33 -33 -34 -33 -33 -33 -33 -33 -34 -34 -34
-19 -19 -19 -19 -19 -19 -19 -19 -20 -20 -21 -22 -22 -23 -23 -24 -24 -25 -26 -28 -29 -29 -30 -30 -31 -31 -32 -32 -33 -33 -33 -33 -33 -33 -33 -33 -33 -33 -33 -33 -34 -34 -34 -35
-19 -19 -19 -19 -19 -19 -20 -20 -21 -22 -22 -23 -23 -24 -24 -25 -25 -27 -28 -29 -30 -30 -31 -31 -32 -32 -32 -33 -33 -33 -33 -33 -33 -33 -33 -33 -34 -33 -34 -34 -34 -34 -35 -35
-19 -19 -20 -20 -20 -20 -21 -22 -22 -22 -23 -23 -24 -25 -25 -26 -27 -28 -29 -30 -30 -31 -31 -32 -32 -32 -32 -32 -32 -32 -32 -32 -32 -33 -33 -34 -34 -34 -34 -34 -34 -35 -35 -35
-20 -20 -20 -20 -21 -21 -22 -22 -23 -23 -23 -24 -25 -25 -27 -27 -28 -29 -30 -30 -31 -31 -32 -32 -32 -32 -32 -32 -32 -32 -32 -32 -33 -33 -33 -34 -34 -34 -34 -34 -35 -35 -35 -35
-20 -21 -21 -21 -22 -22 -23 -23 -23 -24 -25 -25 -26 -27 -28 -29 -29 -30 -30 -31 -31 -32 -32 -32 -32 -32 -32 -32 -32 -32 -32 -32 -33 -33 -33 -34 -34 -34 -34 -34 -35 -35 -35 -35
-21 -21 -22 -22 -23 -23 -24 -24 -24 -25 -25 -26 -27 -28 -29 -30 -30 -31 -31 -32 -32 -32 -32 -32 -32 -32 -32 -32 -32 -32 -32 -33 -33 -33 -34 -34 -34 -34 -34 -34 -35 -35 -35 -35
-21 -22 -23 -23 -24 -24 -24 -25 -25 -26 -27 -28 -29 -29 -30 -31 -31 -32 -32 -32 -32 -32 -33 -32 -32 -32 -32 -32 -32 -32 -33 -33 -33 -34 -34 -34 -34 -34 -34 -35 -35 -35 -35 -35
-23 -23 -24 -24 -24 -25 -25 -26 -27 -28 -29 -30 -30 -30 -31 -32 -32 -32 -33 -33 -33 -33 -33 -33 -33 -32 -32 -33 -33 -33 -33 -33 -34 -34 -34 -34 -34 -34 -35 -35 -35 -35 -35 -35
-24 -24 -24 -25 -25 -25 -27 -28 -29 -29 -30 -30 -31 -31 -32 -32 -33 -33 -33 -33 -33 -33 -33 -33 -33 -33 -33 -33 -33 -33 -33 -34 -34 -34 -34 -34 -35 -35 -35 -35 -35 -35 -36 -36
-25 -25 -25 -25 -26 -27 -28 -29 -29 -30 -30 -31 -31 -32 -32 -33 -33 -32 -33 -33 -33 -33 -33 -33 -33 -33 -33 -33 -33 -34 -34 -34 -34 -34 -35 -35 -35 -35 -35 -35 -36 -36 -36 -36
-26 -26 -27 -27 -28 -29 -29 -30 -30 -31 -31 -32 -33 -33 -33 -33 -33 -33 -33 -33 -33 -33 -33 -33 -34 -34 -34 -34 -34 -34 -34 -34 -35 -35 -35 -35 -35 -35 -35 -36 -36 -36 -36 -36
-27 -28 -29 -29 -30 -30 -30 -31 -31 -32 -32 -32 -33 -33 -33 -33 -33 -33 -33 -33 -33 -33 -34 -34 -34 -34 -34 -34 -34 -34 -34 -35 -35 -35 -35 -35 -35 -35 -36 -36 -36 -36 -36 -37
-29 -30 -30 -30 -31 -31 -31 -32 -32 -32 -33 -33 -33 -33 -33 -33 -33 -33 -33 -33 -33 -34 -34 -34 -34 -34 -34 -35 -34 -35 -35 -35 -35 -35 -35 -35 -36 -36 -36 -36 -36 -36 -37 -37
-30 -31 -31 -31 -31 -32 -32 -33 -33 -33 -33 -33 -33 -33 -33 -34 -33 -33 -33 -33 -34 -34 -34 -34 -34 -34 -34 -35 -35 -35 -35 -35 -36 -36 -36 -36 -36 -36 -36 -36 -36 -37 -37 -37
Height
5783 5780 5777 5772 5765 5759 5754 5750 5743 5745 5741 5736 5732 5729 5726 5719 5714 5711 5705 5699 5693 5685 5676 5667 5657 5646 5634 5622 5610 5600 5589 5578 5566 5555 5542 5531 5518 5505 5493 5481 5470 5460 5452 5444
5778 5774 5771 5766 5757 5751 5747 5741 5737 5733 5730 5726 5725 5720 5718 5713 5706 5703 5697 5690 5682 5674 5663 5651 5640 5627 5615 5603 5592 5582 5571 5558 5546 5535 5523 5511 5500 5489 5478 5467 5457 5448 5440 5432
5772 5767 5765 5758 5750 5744 5740 5732 5728 5725 5723 5719 5715 5711 5708 5702 5699 5691 5683 5675 5667 5657 5646 5634 5622 5609 5597 5588 5576 5565 5553 5542 5529 5517 5505 5493 5482 5472 5462 5452 5444 5436 5428 5420
5762 5758 5756 5748 5740 5736 5733 5727 5723 5719 5717 5713 5708 5703 5699 5693 5686 5679 5671 5662 5652 5641 5628 5615 5603 5595 5585 5572 5558 5546 5533 5522 5511 5499 5487 5477 5467 5456 5447 5440 5432 5424 5415 5407
5753 5749 5747 5739 5735 5729 5725 5725 5720 5716 5712 5708 5702 5697 5691 5683 5676 5668 5659 5648 5635 5622 5610 5600 5589 5578 5566 5553 5539 5527 5516 5504 5494 5484 5474 5464 5453 5444 5436 5429 5421 5413 5403 5395
5746 5741 5736 5732 5724 5723 5718 5715 5714 5710 5706 5700 5694 5688 5682 5673 5663 5652 5639 5628 5617 5607 5595 5583 5570 5558 5548 5536 5522 5509 5497 5489 5477 5466 5458 5449 5441 5433 5426 5418 5411 5402 5392 5383
5737 5732 5729 5722 5719 5715 5713 5710 5702 5697 5692 5687 5679 5672 5664 5654 5644 5634 5623 5612 5600 5589 5577 5564 5551 5538 5527 5516 5504 5491 5479 5470 5461 5453 5445 5437 5430 5423 5416 5409 5401 5392 5383 5372
5730 5726 5717 5714 5709 5706 5703 5698 5692 5686 5680 5672 5664 5656 5648 5639 5628 5616 5606 5594 5582 5570 5560 5548 5534 5519 5507 5498 5485 5474 5464 5455 5445 5439 5432 5426 5420 5414 5407 5399 5391 5382 5373 5362
5721 5718 5709 5703 5698 5695 5690 5685 5681 5675 5668 5660 5652 5643 5634 5624 5612 5600 5587 5576 5565 5554 5543 5531 5517 5502 5489 5478 5469 5456 5448 5439 5431 5424 5419 5414 5410 5405 5399 5391 5383 5374 5364 5353
5710 5711 5701 5696 5692 5687 5681 5676 5670 5663 5655 5647 5638 5628 5617 5606 5594 5583 5572 5560 5549 5536 5524 5512 5499 5486 5473 5460 5451 5441 5431 5423 5416 5411 5408 5405 5401 5397 5391 5383 5375 5366 5356 5346
5701 5697 5692 5687 5682 5676 5670 5664 5658 5650 5641 5632 5621 5611 5599 5589 5578 5567 5556 5544 5531 5517 5504 5492 5480 5468 5455 5443 5432 5424 5417 5411 5406 5402 5401 5398 5395 5391 5384 5376 5368 5359 5349 5340
5688 5686 5680 5675 5669 5664 5658 5650 5643 5634 5624 5614 5603 5593 5584 5574 5562 5550 5538 5526 5513 5500 5487 5474 5462 5451 5439 5428 5417 5409 5404 5401 5398 5396 5394 5393 5390 5384 5378 5370 5361 5353 5344 5335
5679 5674 5670 5665 5658 5651 5644 5636 5627 5618 5607 5598 5589 5577 5568 5558 5547 5533 5521 5507 5494 5481 5468 5457 5446 5435 5425 5415 5406 5399 5395 5394 5393 5391 5389 5387 5383 5378 5371 5364 5356 5349 5340 5331
5667 5662 5657 5651 5645 5637 5629 5620 5612 5602 5592 5582 5572 5564 5552 5542 5530 5516 5501 5489 5477 5466 5455 5444 5434 5424 5415 5407 5401 5396 5393 5391 5389 5387 5385 5382 5378 5372 5365 5358 5350 5342 5335 5328
5653 5648 5641 5635 5628 5621 5613 5604 5596 5587 5578 5569 5557 5546 5535 5524 5511 5499 5486 5474 5463 5452 5442 5433 5426 5418 5411 5405 5399 5396 5393 5390 5387 5384 5381 5377 5372 5366 5360 5353 5345 5337 5330 5324
5639 5633 5627 5620 5613 5605 5597 5590 5582 5574 5563 5553 5542 5530 5517 5504 5493 5482 5470 5458 5448 5442 5433 5426 5420 5414 5409 5404 5399 5395 5391 5387 5384 5381 5377 5373 5367 5361 5355 5347 5340 5333 5327 5321
5625 5620 5613 5605 5598 5591 5583 5574 5566 5557 5547 5536 5526 5514 5502 5490 5480 5468 5458 5447 5437 5430 5425 5420 5415 5411 5406 5402 5397 5393 5388 5384 5381 5377 5373 5368 5362 5357 5349 5342 5335 5329 5323 5317
5609 5603 5597 5591 5584 5576 5567 5557 5549 5540 5530 5520 5509 5498 5487 5476 5465 5456 5446 5437 5429 5423 5418 5414 5410 5406 5402 5398 5393 5389 5385 5381 5377 5372 5368 5363 5358 5352 5345 5337 5331 5325 5319 5314
5595 5588 5582 5574 5566 5558 5549 5542 5534 5524 5514 5503 5494 5485 5474 5463 5453 5444 5436 5427 5420 5416 5412 5408 5405 5401 5398 5393 5389 5385 5381 5376 5372 5368 5363 5359 5354 5348 5341 5333 5327 5321 5316 5310
5578 5572 5565 5558 5549 5542 5534 5526 5517 5508 5497 5488 5479 5471 5463 5453 5443 5435 5426 5419 5413 5409 5406 5402 5399 5395 5392 5388 5384 5380 5376 5371 5367 5363 5359 5354 5349 5343 5337 5329 5323 5317 5312 5306
5562 5557 5550 5543 5535 5526 5517 5509 5501 5493 5484 5474 5466 5459 5452 5444 5435 5427 5420 5414 5408 5404 5400 5397 5393 5390 5386 5383 5379 5375 5370 5366 5362 5358 5354 5350 5345 5339 5332 5326 5319 5313 5308 5302
5546 5540 5534 5526 5520 5513 5503 5494 5486 5478 5471 5463 5455 5448 5441 5434 5427 5420 5413 5408 5402 5397 5394 5390 5387 5384 5380 5377 5373 5369 5365 5361 5357 5353 5349 5345 5340 5334 5328 5322 5315 5308 5303 5298
5530 5524 5517 5511 5505 5498 5490 5480 5473 5465 5458 5451 5445 5438 5431 5424 5418 5411 5405 5400 5395 5391 5386 5383 5380 5377 5374 5371 5367 5363 5360 5356 5352 5348 5344 5340 5335 5329 5324 5317 5311 5304 5299 5294
5513 5507 5501 5494 5488 5482 5476 5468 5460 5453 5447 5440 5433 5427 5421 5416 5410 5403 5398 5392 5387 5383 5379 5375 5372 5369 5367 5364 5361 5357 5354 5350 5347 5343 5339 5334 5329 5324 5319 5313 5306 5300 5294 5289
5498 5492 5485 5479 5473 5466 5460 5454 5448 5441 5435 5430 5423 5417 5411 5406 5400 5396 5390 5386 5381 5377 5373 5369 5365 5362 5360 5357 5354 5351 5348 5344 5341 5337 5333 5329 5324 5319 5313 5308 5302 5295 5289 5284
5483 5477 5471 5464 5458 5452 5446 5440 5435 5430 5424 5420 5415 5408 5402 5397 5392 5388 5383 5379 5374 5370 5366 5363 5360 5357 5354 5351 5348 5345 5341 5338 5334 5330 5327 5322 5318 5313 5308 5302 5296 5290 5284 5279
5468 5462 5456 5451 5444 5438 5433 5427 5422 5419 5413 5409 5405 5399 5394 5390 5386 5381 5377 5373 5368 5364 5360 5356 5353 5350 5347 5344 5341 5337 5334 5331 5327 5323 5320 5315 5311 5306 5301 5296 5290 5285 5279 5274
Wind_Speed
25 29 33 38 42 43 41 38 38 29 28 29 33 32 34 37 39 41 46 51 57 62 66 70 74 77 80 82 82 80 76 83 85 84 86 86 84 86 81 74 68 57 52 53
28 33 38 43 44 42 38 36 33 33 30 28 27 29 29 34 41 44 50 54 61 66 70 76 80 83 85 84 83 78 86 86 84 85 86 84 84 79 73 67 58 52 51 52
32 38 42 46 41 38 34 35 36 32 30 30 32 35 37 42 46 52 58 63 67 72 76 79 81 82 65 73 89 85 85 85 85 85 83 79 76 70 65 59 52 50 51 54
39 43 48 45 41 37 32 28 28 31 32 34 38 42 44 50 54 58 63 68 73 77 78 79 76 68 82 86 84 85 85 84 84 81 77 74 70 65 57 53 50 50 53 55
42 46 50 42 37 34 30 23 28 30 33 37 41 46 50 55 58 62 68 72 76 79 79 77 79 81 81 84 84 84 84 85 79 75 72 67 62 56 52 50 49 51 54 55
43 47 50 39 40 30 30 31 31 36 40 44 47 52 55 59 65 71 77 79 82 82 78 79 79 82 83 83 82 83 85 79 75 71 66 60 55 51 49 48 49 51 53 57
44 49 47 40 34 34 33 38 42 45 48 50 55 59 62 68 73 78 80 82 81 80 81 82 84 84 86 85 83 84 82 77 70 65 59 53 51 48 47 47 49 50 53 58
47 48 45 40 37 39 41 43 46 49 53 57 60 64 69 75 78 80 81 80 80 82 83 83 84 85 85 84 83 82 77 71 67 62 56 51 47 44 44 46 49 49 53 53
47 40 39 41 44 44 46 49 52 55 58 61 65 70 75 78 80 81 79 80 81 82 84 84 84 84 84 83 78 79 74 70 65 59 52 44 40 39 41 46 46 49 52 46
48 35 39 41 43 46 49 53 56 58 62 66 70 74 76 78 77 78 79 80 82 84 85 85 83 81 79 78 74 73 69 61 53 45 37 34 33 36 41 44 45 48 48 42
49 44 44 43 45 49 53 57 60 63 66 71 74 76 78 78 79 78 80 82 84 85 83 81 79 76 75 74 69 61 53 45 37 30 26 30 28 35 41 43 44 47 45 41
47 44 46 49 54 55 57 61 64 68 72 74 76 77 79 78 78 81 83 84 83 81 79 77 75 72 69 64 59 51 40 32 24 20 29 23 29 36 40 41 43 44 43 39
47 48 50 52 55 58 62 65 68 70 72 73 75 76 76 78 80 82 82 81 80 77 74 72 70 63 58 51 43 33 24 19 15 24 20 24 31 37 39 40 42 40 38 37
48 50 53 56 58 62 65 68 70 71 74 74 75 75 77 79 81 81 80 77 75 71 69 64 56 51 43 35 27 21 16 14 20 19 20 27 33 38 38 40 42 39 36 35
52 55 58 61 64 67 68 70 71 71 72 72 74 76 78 80 79 78 75 72 69 67 60 51 44 36 29 25 21 18 18 21 21 19 23 29 35 37 38 41 40 35 35 34
57 60 62 65 67 68 70 70 71 71 71 73 74 76 77 76 76 73 70 68 65 57 46 38 31 24 23 22 21 22 23 21 20 22 26 31 34 36 39 41 36 33 33 32
60 62 65 68 69 69 69 69 69 70 72 74 75 75 75 74 71 68 66 62 55 45 36 30 22 22 21 22 25 26 23 22 23 25 28 31 32 36 40 39 33 31 32 30
65 67 69 68 67 68 68 69 70 70 72 74 74 72 71 68 67 65 59 53 44 34 30 24 22 22 22 25 27 27 24 23 25 26 29 30 31 35 40 37 32 31 31 28
69 69 67 67 67 67 67 69 70 72 72 71 69 67 65 64 63 57 52 43 33 29 24 23 23 22 24 27 26 24 25 26 26 27 28 28 32 35 38 38 32 30 30 29
69 68 66 65 66 67 67 69 70 69 67 66 65 62 60 59 56 49 43 38 31 26 24 24 23 23 25 24 24 26 29 28 27 28 26 28 32 35 37 38 33 30 29 29
66 63 63 64 66 67 67 67 67 65 63 62 60 58 56 51 48 44 37 34 29 26 24 23 24 24 24 24 25 29 29 27 27 25 25 29 32 34 36 39 35 30 29 29
61 62 63 64 65 66 65 63 62 61 60 57 56 54 51 46 44 41 37 33 31 28 26 25 24 25 24 25 28 29 27 26 25 25 26 29 31 33 35 38 38 32 29 29
62 63 64 65 64 63 60 59 59 57 54 53 52 49 47 44 43 39 37 34 32 30 27 26 26 26 27 28 28 26 25 25 25 26 27 28 30 32 35 37 40 35 30 29
61 62 63 62 60 58 57 56 54 52 51 50 46 47 45 41 39 38 35 32 31 29 27 25 26 27 27 26 26 24 25 25 26 26 26 28 30 32 36 37 41 38 31 29
60 60 58 57 56 55 54 52 51 51 49 45 44 44 41 38 36 35 32 31 29 28 28 27 25 24 25 25 25 25 25 26 26 26 26 28 31 34 37 39 40 42 34 30
57 56 56 54 53 53 52 50 48 45 43 40 40 40 38 34 32 32 29 29 28 28 29 28 26 25 27 25 25 27 27 29 28 27 29 31 34 37 38 39 39 42 36 31
54 53 51 50 50 48 46 43 42 40 38 38 36 36 31 28 29 29 27 27 27 27 27 27 27 27 26 26 28 29 30 30 30 30 32 34 37 38 38 39 38 41 38 32
Wind_Direction
320 324 327 327 321 318 315 313 307 307 299 292 284 293 296 299 301 304 304 307 309 310 309 309 309 309 309 309 312 315 313 309 311 310 312 312 313 315 316 317 315 311 308 308
319 321 328 328 321 316 317 310 306 311 309 296 303 298 299 299 300 306 308 310 310 310 312 312 311 310 309 312 317 309 309 311 312 313 313 313 315 316 316 316 313 309 308 308
315 318 326 326 321 316 316 312 310 306 307 307 306 304 308 306 311 310 310 312 315 314 312 309 311 313 315 306 312 310 310 311 312 312 313 315 317 316 317 315 311 310 310 310
312 319 327 326 321 318 316 309 308 307 308 309 306 307 308 310 309 312 313 314 312 311 312 314 317 311 307 309 309 311 311 311 313 314 315 316 315 316 316 313 312 313 313 314
312 318 325 319 318 316 315 306 309 304 304 304 304 306 307 309 310 310 311 311 312 314 316 311 305 309 310 310 310 310 310 312 313 314 314 315 315 316 315 312 314 315 316 315
312 317 323 319 318 322 317 311 310 307 307 307 307 307 308 309 313 315 314 314 313 313 312 310 310 309 310 311 311 308 311 314 313 314 315 315 315 316 312 313 316 319 318 318
310 317 318 311 312 313 313 312 310 311 311 312 312 313 315 315 314 313 313 311 313 311 313 312 311 311 312 312 311 310 312 313 313 313 314 314 315 314 312 314 319 321 320 322
311 316 311 307 305 307 311 310 311 312 315 315 315 314 314 313 312 311 312 313 313 313 312 312 312 312 311 311 310 311 312 312 312 311 311 311 312 310 311 318 323 323 325 326
312 316 304 303 304 307 311 309 311 314 314 313 313 313 312 311 310 310 312 313 312 311 311 312 312 311 310 310 311 310 311 310 308 307 308 308 308 308 314 323 325 326 328 329
306 304 298 300 304 306 307 310 312 312 312 312 312 311 310 310 310 311 312 311 311 311 312 313 311 311 311 310 311 310 310 310 308 307 306 307 306 311 321 326 327 329 332 331
302 300 298 300 302 305 308 310 310 311 311 310 311 311 311 311 312 311 311 311 312 313 313 313 313 314 313 312 312 312 311 310 310 307 310 304 307 317 326 329 330 333 334 333
299 298 299 304 306 309 308 309 310 310 311 312 310 310 310 310 311 311 312 313 314 314 314 315 316 315 314 314 313 310 306 308 308 309 307 305 315 324 329 330 332 335 335 335
299 301 304 304 305 306 307 308 309 310 309 308 308 309 310 311 312 313 314 315 316 317 317 317 317 317 317 317 319 317 311 307 307 312 304 313 321 327 330 332 335 336 336 336
299 301 302 304 305 306 308 309 309 308 307 309 309 310 311 312 314 315 316 318 317 317 318 318 319 321 323 324 327 326 320 318 317 310 312 319 324 329 333 334 335 335 338 339
299 301 304 308 310 309 308 308 308 308 307 308 309 311 313 315 317 318 318 317 317 319 319 320 323 326 332 337 339 335 329 324 320 315 317 322 326 331 334 334 334 337 338 341
302 304 306 308 308 308 307 306 305 306 307 309 312 313 316 318 318 319 318 317 318 319 317 319 322 327 332 333 332 329 325 324 319 316 319 324 329 332 334 333 335 337 339 339
304 305 305 305 305 304 302 303 305 308 311 312 314 316 317 318 319 318 318 318 317 316 315 317 317 321 324 326 325 324 319 320 317 318 322 326 330 335 336 335 335 336 338 337
305 305 303 301 301 301 304 307 309 311 311 313 315 317 319 318 318 319 319 317 315 312 312 311 313 314 319 324 327 321 317 320 321 322 324 327 331 335 338 337 336 336 337 337
301 300 300 301 302 305 306 307 309 310 312 315 317 318 319 319 319 321 320 318 313 310 309 307 310 308 311 320 323 318 320 320 320 321 322 327 331 334 340 340 335 334 336 336
298 298 300 302 304 305 307 308 310 312 314 316 317 319 319 319 320 322 323 321 314 309 309 310 307 305 310 318 320 319 319 318 319 319 322 327 331 335 340 342 337 334 335 334
297 299 301 303 304 306 307 309 311 313 315 316 317 317 319 320 321 323 322 323 314 307 302 306 307 307 313 316 315 317 318 317 317 318 321 325 329 335 338 344 340 334 332 334
299 301 302 303 304 306 308 310 312 313 314 314 315 317 318 319 320 321 320 318 322 309 303 299 303 307 310 312 313 315 316 315 315 317 321 325 330 335 339 342 343 336 332 331
301 302 302 303 305 306 308 310 310 312 313 312 312 315 317 317 318 320 321 314 315 319 306 300 298 301 306 310 311 312 315 313 314 315 320 325 330 335 339 340 344 338 332 330
301 301 302 304 306 307 307 308 309 309 309 309 310 313 312 313 317 319 320 319 317 320 320 310 298 297 302 302 307 307 313 314 313 317 321 326 331 334 339 339 342 340 332 329
301 302 304 305 305 306 307 307 305 305 306 308 310 311 310 314 317 318 315 316 316 317 321 321 313 307 302 301 303 305 309 312 314 315 319 325 330 335 336 338 338 340 333 327
303 303 304 304 304 304 304 304 304 304 305 307 309 310 310 313 317 318 314 313 314 312 311 313 314 308 303 301 301 305 304 307 310 311 316 322 326 328 331 332 333 338 332 326
303 303 303 302 303 304 305 305 305 305 306 307 311 314 310 312 317 319 319 318 317 315 311 310 306 305 305 300 300 301 306 305 305 308 312 318 320 322 325 327 329 333 331 323